Regional Weather Roundup
Issued by NWS Sterling, VA

Home | Current Version | Previous Version | Text Only | Print | Product List | Glossary Off
Versions: 1 2 3 4 5 6 7 8 9 10 11 12 13 14 15 16 17 18 19 20 21 22 23 24 25 26 27 28 29 30 31 32 33 34 35 36 37 38 39 40 41 42 43 44 45 46 47 48 49 50

000
ASUS41 KLWX 290810
RWRLWX

REGIONAL WEATHER ROUNDUP
NATIONAL WEATHER SERVICE BALTIMORE MD/WASHINGTON DC
400 AM EDT FRI APR 29 2016

Note: "FAIR" indicates few or no clouds below 12,000 feet
with no significant weather and/or obstructions to visibility.
 TC=TEMPERATURE CELSIUS

 * =Non NWS site. Station does not report precipitation (e.g. rain,
    snow, etc.), thunder, or fog.

DCZ001-MDZ009-015-VAZ040>042-051-053>054-290900-
WASHINGTON METRO

CITY           SKY/WX    TMP DP  RH WIND       PRES   REMARKS
WASHINGTON NAT CLOUDY    48  46  93 NE9       30.01S FOG
DULLES         CLOUDY    46  44  93 NE6       30.00S FOG
ANDREWS AFB    CLOUDY    46  45  96 NE7       29.99S FOG
FT BELVOIR     CLOUDY    46  45  93 VRB2      30.00S FOG
QUANTICO       CLOUDY    50  48  93 E13       30.01R
COLLEGE PARK*  CLOUDY    45  45 100 CALM      30.01R
LEESBURG*      CLOUDY    46  46 100 E3        30.01R FOG
MANASSAS*      CLOUDY    46  46 100 N3        30.00S
GAITHERSBURG*  CLOUDY    45  39  81 NE5       30.04S

$$

MDZ006>007-011-014-290900-
BALTIMORE METRO

CITY           SKY/WX    TMP DP  RH WIND       PRES   REMARKS
BWI AIRPORT    CLOUDY    47  43  86 NE8       30.00S
MD SCIENCE CTR   N/A     48  42  80 MISG      30.02R
MARTIN STATE   CLOUDY    46  45  93 NW5       30.04R
ANNAPOLIS      CLOUDY    48  46  93 MISG      30.00S
FORT MEADE*    CLOUDY    46  43  87 CALM      30.03

$$

MDZ012-015-019>023-290900-
MARYLAND EASTERN SHORE

CITY           SKY/WX    TMP DP  RH WIND       PRES   REMARKS
OCEAN CITY     CLOUDY    50  48  93 NE13      29.96F FOG
SALISBURY      CLOUDY    49  48  97 NE10      29.97S
CAMBRIDGE*     CLOUDY    46  46 100 NE6       29.98S
EASTON*        CLOUDY   N/A N/A N/A NE7       30.04R FOG

$$

MDZ017>025-290900-
SOUTHERN MARYLAND

CITY           SKY/WX    TMP DP  RH WIND       PRES   REMARKS
PATUXENT RIVER DRIZZLE   50  47  89 NE7       29.98R
ST INIGOES     CLOUDY    51  49  92 N6        29.97R
LEONARDTOWN*   CLOUDY    48  46  93 CALM      29.99S

$$

MDZ003>005-290900-
NORTH CENTRAL MARYLAND

CITY           SKY/WX    TMP DP  RH WIND       PRES   REMARKS
FREDERICK*     CLOUDY    45  45 100 CALM      30.04R FOG
HAGERSTOWN APT CLOUDY    45  43  93 E7        29.99S FOG
WESTMINSTER*   CLOUDY    45  43  93 CALM      30.00R FOG

$$

MDZ501>502-290900-
WESTERN MARYLAND

CITY           SKY/WX    TMP DP  RH WIND       PRES   REMARKS
OAKLAND*       FOG       41  41 100 SE5       29.93S VSB 1/2
CUMBERLAND*    CLOUDY    46  46 100 NE5       30.02R

$$

VAZ025>031-290900-
SHENANDOAH VALLEY

CITY           SKY/WX    TMP DP  RH WIND       PRES   REMARKS
WINCHESTER*    CLOUDY    45  45 100 E6        29.98S FOG
FRONT ROYAL*   CLOUDY    45  45 100 NE5       29.96S
LURAY*         CLOUDY    46  46 100 NE5       29.96S FOG
NEW MARKET*    CLOUDY    47  47 100 N6        29.95S
STAUNTON*      CLOUDY    52  52 100 CALM      29.98R FOG
WAYNESBORO*    CLOUDY    51  50  96 MISG      29.96R

$$

WVZ021-048>050-054>055-290900-
EASTERN WEST VIRGINIA PANHANDLE

CITY           SKY/WX    TMP DP  RH WIND       PRES   REMARKS
MARTINSBURG    CLOUDY    45  44  97 E5        29.99R FOG
PETERSBURG*    CLOUDY    49  49  99 N6        29.97R FOG

$$

VAZ036>039-050-290900-
CENTRAL FOOTHILLS

CITY           SKY/WX    TMP DP  RH WIND       PRES   REMARKS
CHARLOTTESVILL CLOUDY    50  48  93 NE7       29.98R FOG
CULPEPER*      CLOUDY    48  48  99 CALM      30.01R FOG
ORANGE*        CLOUDY    50  50 100 CALM      30.00R FOG
GORDONSVILLE*  CLOUDY    49  49 100 NE3       29.98R FOG
WARRENTON*     CLOUDY    47  44  87 NE5       30.00R FOG

$$

VAZ055>057-290900-
NORTH AND CENTRAL PIEDMONT

CITY           SKY/WX    TMP DP  RH WIND       PRES   REMARKS
FREDERICKSBRG* CLOUDY    49  49 100 NE3       29.99R
STAFFORD*      CLOUDY    47  46  95 N5        30.04R FOG

$$

NCZ024-NYZ072-PAZ021-071-VAZ022-071-290900-
OTHER REGIONAL OBSERVATIONS

CITY           SKY/WX    TMP DP  RH WIND       PRES   REMARKS
NEW YORK CITY  CLOUDY    50  33  52 VRB5      30.08R
PHILADELPHIA   CLOUDY    46  40  79 NE8       30.05R
PITTSBURGH     FOG       46  44  93 NW5       29.94R VSB 1/2
ROANOKE        CLOUDY    57  56  96 SE8       29.98R FOG
RICHMOND       CLOUDY    50  50 100 E6        29.96F FOG
RALEIGH        MOCLDY    62  60  93 E6        29.94R

$$

ANZ530>537-290900-
MARINE OBSERVATIONS

STATION/POSITION TIME  TEMP    WIND        PRES
                       AIR SEA DIR/SP/G
                 (UTC) (F)     (DEG/KT/KT) (MB)
THOMAS PT LIGHT  0800   48 57   60/  9/  9 1017.4R
BALT KEY BRIDGE  0700   47      10/  6/  8 1016.2S
COVE POINT       0700   49      40/  7/  9 1015.7F
LEWISETTA        0700   51 60   40/  6/ 12 1014.5F
SOLOMONS ISLAND  0700   50 60   30/  6/  7   N/A

$$




USA.gov is the U.S. government's official web portal to all federal, state and local government web resources and services.